Flag for Canada Weather past 2 weeks in Fort St. John, British Columbia, Canada

Now
57 °F

Broken clouds.


Feels Like: 54 °F
Forecast: 48 / 59 °F
Wind: 15 mph from Southwest

Location: Fort St John

Current Time: Aug 29, 2014 at 12:02:09 PM

Latest Report: Aug 29, 2014 at 11:00 AM


Visibility: 15 mi

Pressure: 29.74 "Hg

Humidity: 72%

Dew point: 48 °F

Location of Fort St. JohnLocation

Historic Weather in Fort St. John — Graph

°F

Fort St. John temperature yesterday

Maximum temperature yesterday: 70 °F (at 3:00 PM)
Minimum temperature yesterday: 41 °F (at 6:00 AM)
Average temperature yesterday: 56 °F

Past Weeks' High & Low Weather Summary

 TemperatureHumidityPressure
High84 °F (Aug 14, 5:00 PM)100% (Aug 20, 7:00 AM)30.41 "Hg (Aug 20, 7:00 AM)
Low37 °F (Aug 21, 6:00 AM)23% (Aug 17, 5:00 PM)29.66 "Hg (Aug 18, 7:00 PM)
Average60 °F61%29.99 "Hg
* Reported Aug 14 10:00 AM — Aug 29 10:00 AM, Fort St. John, Weather by CustomWeather, © 2014

Note: Actual official high and low records may vary slightly from our data, if they occured in-between our weather recording intervals... More about our weather records

Advertising

Fort St. John weather history for previous 24 hours

 ConditionsComfort  
Time TempWeatherWind HumidityBarometerVisibility
10:00 AM
Aug 29
55 °FMostly cloudy.10 mph72%29.75 "Hg15 mi
9:00 AM52 °FMostly cloudy.7 mph77%29.77 "Hg15 mi
8:00 AM52 °FPartly sunny.9 mph62%29.78 "Hg15 mi
7:00 AM46 °FBroken clouds.3 mph71%29.80 "Hg15 mi
6:00 AM45 °FPassing clouds.6 mph71%29.80 "Hg15 mi
5:00 AM45 °FPassing clouds.7 mph71%29.80 "Hg15 mi
4:00 AM45 °FPassing clouds.5 mph71%29.82 "Hg15 mi
3:00 AM46 °FPassing clouds.7 mph66%29.83 "Hg15 mi
2:00 AM46 °FPassing clouds.6 mph66%29.85 "Hg15 mi
1:00 AM52 °FPassing clouds.3 mph54%29.85 "Hg15 mi
12:00 AM55 °FPassing clouds.2 mph47%29.86 "Hg15 mi
11:00 PM
Aug 28
54 °FPassing clouds.7 mph47%29.88 "Hg15 mi
10:00 PM55 °FPassing clouds.8 mph47%29.90 "Hg15 mi
9:00 PM61 °FPartly sunny.7 mph36%29.90 "Hg15 mi
8:00 PM61 °FPartly sunny.8 mph39%29.90 "Hg15 mi
7:00 PM66 °FPartly sunny.7 mph35%29.90 "Hg15 mi
6:00 PM70 °FPartly sunny.8 mph31%29.91 "Hg15 mi
5:00 PM70 °FScattered clouds.9 mph31%29.92 "Hg15 mi
4:00 PM70 °FPassing clouds.5 mph33%29.95 "Hg15 mi
3:00 PM70 °FPassing clouds.10 mph31%29.96 "Hg15 mi
2:00 PM66 °FPassing clouds.9 mph37%29.99 "Hg15 mi
1:00 PM66 °FPassing clouds.6 mph35%30.00 "Hg15 mi
12:00 PM63 °FPassing clouds.8 mph45%30.03 "Hg15 mi
Weather by CustomWeather, © 2014

See weather overviewHow to use our weather pages